Location: Airmen Village
(14.5258°N, 121.0161°E)
Time: 01:25:27
(UTC+00:00)

Daily predictions for brighter satellites

Satellite Brightness Start Highest point End
(mag) Time Altitude Azimuth Time Altitude Azimuth Time Altitude Azimuth
Cosmos 1603 3.7 09:37:10 10° SSW 09:42:49 83° ESE 09:48:27 10° NNE
SL-8 Rocket 4.1 09:37:14 10° N 09:43:21 56° E 09:49:31 10° SSE
Meteor 1-20 Rocket 4.5 09:38:59 10° N 09:44:36 50° E 09:50:06 10° SSE
ARIANE 5 R/B 4.1 09:27:23 10° W 09:45:50 40° SSW 09:50:03 10° SE
Skynet4D Del rocket 4.2 09:41:58 10° SW 09:47:51 60° SSE 09:54:37 10° ENE
Cosmos 1943 3.2 09:43:07 10° SSW 09:48:44 81° ESE 09:54:23 10° NNE
SWIFT 2.9 09:52:12 10° SW 09:56:13 48° SSE 10:00:13 10° E
YAOGAN 1 4.4 09:56:19 10° E 09:57:25 11° ENE 09:58:22 10° ENE
GPS 2-18 Rocket1 4.3 09:56:37 10° W 10:00:01 37° SSW 10:03:24 10° SE
SL-8 R/B 3.7 09:56:05 10° SSW 10:00:48 66° SE 10:05:21 11° NE
Cosmos 1812 3.1 09:57:23 10° SSE 10:01:01 41° E 10:04:38 10° NNE
Cosmos 923 Rocket 3.9 09:58:25 10° S 10:03:35 74° ESE 10:08:45 10° NNE
H-2A R/B 3.6 10:04:32 10° ESE 10:07:02 13° ENE 10:07:20 13° ENE
Cosmos 2369 Rocket 3.8 10:05:54 10° NE 10:07:29 13° ENE 10:07:29 13° ENE
ATLAS 3B R/B 4.2 10:06:16 10° SE 10:08:55 13° ESE 10:10:40 11° E
Cosmos 2228 Rocket 3.1 10:05:30 10° S 10:10:00 61° E 10:14:29 10° NNE
Cosmos 44 4.2 10:05:39 10° N 10:10:24 31° ENE 10:15:06 10° SE
CZ-2D R/B 3.9 10:08:55 10° SE 10:12:19 32° ENE 10:15:44 10° NNE
FengYun 1-2 T 4.4 10:08:20 10° S 10:13:54 80° WSW 10:19:25 10° NNW
Meteor 1-25 Rocket 4.4 10:09:25 10° N 10:15:07 80° W 10:20:53 10° S
Cosmos 158 Rocket 4.1 10:13:25 10° SSW 10:18:31 76° WNW 10:23:30 10° N
Cosmos 1943 Rocket 2.8 10:13:54 10° N 10:18:50 32° ENE 10:23:48 10° SE
Cosmos 1470 Rocket 3.4 10:14:49 10° N 10:19:07 72° E 10:23:25 10° S
GPS 2-12 Rocket1 3.7 10:16:01 10° SW 10:20:37 47° SSE 10:23:39 20° E
Cosmos 1602 3.6 10:19:17 10° N 10:23:09 88° E 10:27:00 10° S
Cosmos 1689 Rocket 4.3 10:22:00 10° NNW 10:24:30 25° WNW 10:27:00 10° SW
Abrixas rocket 3.6 10:23:07 10° WNW 10:25:37 32° SW 10:28:06 10° SSE
Cosmos 1707 Rocket 4.4 10:22:24 10° SSE 10:26:12 28° E 10:27:19 25° ENE
SL-08 R/B 4.4 10:20:15 10° N 10:26:15 61° E 10:32:18 10° SSE
Cosmos 1680 Rocket 3.7 10:26:05 10° SSW 10:31:18 76° WNW 10:36:33 10° N
Cosmos 1437 Rocket 2.9 10:28:05 10° S 10:32:01 52° E 10:34:13 24° NNE
CZ-2C R/B 3.4 10:31:03 25° ENE 10:32:30 29° E 10:36:57 10° SSE
FUSE 4.2 10:30:08 10° WNW 10:35:21 50° NNE 10:37:38 30° ENE
NOSS 3-2 (C) 3.7 10:32:08 10° SW 10:37:19 56° WNW 10:42:46 10° NNE
CENTAUR R/B 2.7 10:32:21 10° SW 10:37:28 56° WNW 10:43:14 10° NNE
Okean-O 2.8 10:33:33 10° SSE 10:37:48 47° ENE 10:42:02 10° N
Palapa 6 Rocket 4.0 10:32:25 10° WNW 10:38:33 87° SSW 10:43:53 20° ESE
GPS 2-15 Rocket1 3.1 10:37:36 10° WNW 10:42:34 88° NNE 10:44:39 35° ESE
Cosmos 2297 4.1 10:37:34 10° NNW 10:43:13 68° WSW 10:48:53 10° S
MOS 1 Rocket 4.4 10:41:37 10° N 10:46:48 50° WNW 10:51:48 10° SSW
Cosmos 1933 Rocket 3.8 10:45:01 10° N 10:49:25 70° W 10:53:49 10° S
Hubble Space Telescope 1.7 10:46:07 10° W 10:49:54 35° NNW 10:50:40 33° N
GPS 2-14 Rocket1 2.4 10:48:05 10° WSW 10:51:53 76° SSE 10:52:07 72° ESE
Helios 1A Rocket 2.7 10:48:08 10° SSE 10:52:09 74° ENE 10:54:37 22° N
USA 276 4.2 10:50:09 10° W 10:52:39 21° NW 10:53:25 19° NNW
CSL-04 Debris 4.4 10:58:29 10° SSE 11:02:50 46° ESE 11:02:50 46° ESE
Cosmos 2239 Rocket 4.3 11:00:09 10° N 11:06:20 77° E 11:12:34 10° S
DMSP B5D2-2 4.3 11:07:04 50° SE 11:07:04 50° SE 11:11:36 10° S
CZ-4 R/B 1.8 11:03:17 10° S 11:07:05 57° W 11:09:55 17° NNW
Lacrosse 4 Rocket 3.3 11:05:14 10° SW 11:08:34 25° WNW 11:10:35 17° NNW
Cosmos 1238 Rocket 3.4 11:10:10 34° N 11:12:21 85° W 11:18:04 10° S
Mugunghwa Rocket 3.9 11:06:59 10° WNW 11:13:24 89° N 11:15:09 53° ESE
CZ-2C R/B 3.7 11:12:16 10° S 11:17:29 53° W 11:22:25 10° NNW
CSL-04 Rocket 4.5 11:16:07 10° SSE 11:19:23 38° SSE 11:19:23 38° SSE
Meteosat 1 Rocket2 4.4 11:17:51 10° W 11:22:39 34° SW 11:23:24 31° SSW
Cosmos 1934 Rocket 4.1 11:33:09 65° SSE 11:33:09 65° SSE 11:38:23 10° S
YAOGAN 1 4.2 11:29:16 10° SSW 11:33:07 33° W 11:35:31 19° NW
BREEZE-M DEB (TANK) 4.2 11:30:24 10° SW 11:36:29 47° WSW 11:36:29 47° WSW
SWIFT 4.4 11:33:58 10° W 11:35:49 25° W 11:35:49 25° W
Ariane H10 3.7 11:37:27 10° WSW 11:40:32 42° S 11:40:32 42° S
H-2A R/B 3.1 11:40:58 10° S 11:46:03 43° W 11:47:57 32° NW
USA 281 3.5 11:44:07 10° S 11:50:33 61° WSW 11:57:01 10° NNW
Cosmos 2369 Rocket 3.8 11:47:04 10° NNW 11:57:01 14° S 11:57:45 10° S
